Regional Weather Roundup
Issued by NWS

Home | Current Version | Previous Version | Text Only | Print | Product List | Glossary Off
Versions: 1 2 3 4 5 6 7 8 9 10 11 12 13 14 15 16 17 18 19 20 21 22 23 24 25 26 27 28 29 30 31 32 33 34 35 36 37 38 39 40 41 42 43 44 45 46 47 48 49 50

000
ASUS43 KMPX 310610
RWRMN
WEATHER ROUNDUP FOR MINNESOTA
NATIONAL WEATHER SERVICE TWIN CITIES/CHANHASSEN MN
100 AM CDT THU JUL 31 2014


NOTE: "FAIR" INDICATES FEW OR NO CLOUDS BELOW 12,000 FEET WITH NO
SIGNIFICANT WEATHER AND/OR OBSTRUCTIONS TO VISIBILITY. N/A MEANS
CURRENT SKY AND/OR WEATHER CONDITIONS ARE NOT AVAILABLE.

MNZ060>063-068>070-310700-
   Twin Cities Metro

CITY           SKY/WX    TMP DP  RH WIND       PRES   REMARKS
TWIN CITIES    CLEAR     68  59  73 W5        30.04S
6HR MIN TEMP:  68; 6HR MAX TEMP:  79;

ST PAUL        CLEAR     66  58  75 CALM      30.04S
CRYSTAL        CLEAR     66  56  70 W3        30.03S
BLAINE         CLEAR     64  59  82 W3        30.04S
LAKEVILLE      CLEAR     61  57  88 CALM      30.05S
EDEN PRAIRIE   CLEAR     65  59  81 W5        30.04S
6HR MIN TEMP:  65; 6HR MAX TEMP:  79;

SOUTH ST PAUL  CLEAR     67  58  72 W6        30.04R
LAKE ELMO      FAIR      59  55  88 CALM      30.05R
$$
MNZ001>005-007-008-013>017-022>024-027-028-310700-
   Northwest Minnesota

CITY           SKY/WX    TMP DP  RH WIND       PRES   REMARKS
BEMIDJI        CLEAR     60  55  83 W6        30.05S
HALLOCK        CLEAR     64  57  77 CALM      30.02S
ROSEAU         CLEAR     64  57  77 W6        30.02F
WARROAD        CLEAR     64  61  88 W5        30.02S
THIEF RVR FALL CLEAR     63  57  82 CALM      30.04S
CROOKSTON      CLEAR     63  59  88 CALM      30.05S
FOSSTON        CLEAR     54  48  82 CALM      30.06S
DETROIT LAKES  CLEAR     61  59  94 CALM      30.08S
MOORHEAD       PTCLDY    64  63  94 S5        30.07R
PARK RAPIDS    CLEAR     55  53  93 NW3       30.06S
$$
MNZ006-009>011-018-025>026-310700-
   North Central Minnesota

CITY           SKY/WX    TMP DP  RH WIND       PRES   REMARKS
BAUDETTE       CLEAR     65  58  78 NW5       30.02R
FLAG ISLAND    CLEAR     68  61  77 W6        30.00R
INTL FALLS     MOCLDY    55  54  96 CALM      30.00R
6HR MIN TEMP:  55; 6HR MAX TEMP:  74; 6HR PCP: TRACE;

WASKISH        CLEAR     68  61  77 W7        30.01F
BIG FORK       CLEAR     61  55  82 W1        30.02S
LONGVILLE      CLEAR     57  55  94 CALM      30.04S
GRAND RAPIDS   CLEAR     64  55  72 W6        30.02F
CRANE LAKE     CLEAR     54  54 100 CALM      30.01S FOG
ORR            PTCLDY    57  55  94 CALM      29.98S
COOK           MOCLDY    57  57 100 CALM      30.01S FOG
$$
MNZ012-019>021-037-310700-
   Northeast Minnesota

CITY           SKY/WX    TMP DP  RH WIND       PRES   REMARKS
DULUTH         PTCLDY    64  56  75 NW3       30.00S
6HR MIN TEMP:  63; 6HR MAX TEMP:  75;

ELY            CLEAR     54  52  94 CALM      30.00S
HIBBING        MOCLDY    63  56  78 NW5       30.02R
EVELETH        PTCLDY    63  57  82 CALM      30.01S
DULUTH HARBOR  PTCLDY    68  59  73 W6        29.98S
TWO HARBORS    PTCLDY    63  55  77 NW3       29.97S
SILVER BAY     CLEAR     54  54 100 CALM      29.98R
GRAND MARAIS     N/A     60  51  72 NW7       29.94S
G MARAIS ARPRT CLEAR     50  45  81 NW5       29.99S
$$
MNZ029>031-032-039>041-046>048-054>057-064-310700-
   West Central Minnesota

CITY           SKY/WX    TMP DP  RH WIND       PRES   REMARKS
FERGUS FALLS   PTCLDY    63  55  77 CALM      30.06F
WHEATON        CLEAR     59  55  88 SW5       30.09S
MORRIS         CLEAR     59  55  88 CALM      30.07S
ALEXANDRIA     CLEAR     61  58  90 SW5       30.09S
ELBOW LAKE     FAIR      58  56  92 SW5       30.07S
WADENA         CLEAR     54  52  94 CALM      30.07R
GLENWOOD       CLEAR     59  57  94 SW5       30.08S
APPLETON       CLEAR     59  55  88 W7        30.08R
BENSON         CLEAR     57  55  94 CALM      30.08S
ORTONVILLE     CLEAR     63  55  77 W6        30.08S
MADISON        CLEAR     61  57  88 CALM      30.09S
WILLMAR        FAIR      61  54  77 CALM      30.09S
$$
MNZ033>034-036-042>043-049>051-058-059-310700-
   Central Minnesota

CITY           SKY/WX    TMP DP  RH WIND       PRES   REMARKS
ST CLOUD       CLEAR     62  54  74 CALM      30.05R
6HR MIN TEMP:  62; 6HR MAX TEMP:  80;

SAUK CENTRE    FAIR      58  54  88 CALM      30.08R
PAYNESVILLE    CLEAR     52  51  98 SW3       30.08S
AITKIN         CLEAR     59  54  82 CALM      30.03S
PINE RIVER     CLEAR     57  55  94 CALM      30.08S
BRAINERD       CLEAR     56  55  97 CALM      30.05S
STAPLES        CLEAR     55  54  94 CALM      30.06S
LONG PRAIRIE   FAIR      55  54  94 CALM      30.07S
LITTLE FALLS   CLEAR     55  54  94 CALM      30.06S
LITCHFIELD       N/A     63  61  94 CALM      30.08S
BUFFALO        CLEAR     64  57  79 W3        30.06S
MAPLE LAKE     CLEAR     62  57  84 W3        30.07S
$$
MNZ037-044-045-052-053-310700-
   East Central Minnesota

CITY           SKY/WX    TMP DP  RH WIND       PRES   REMARKS
PRINCETON      CLEAR     59  55  88 CALM      30.05S
MORA           CLEAR     61  54  77 CALM      30.05S
CAMBRIDGE      CLEAR     64  54  68 CALM      30.02S
RUSH CITY      MOCLDY    61  56  84 CALM      30.03S
MOOSE LAKE     CLEAR     61  55  82 W6        30.00S
HINCKLEY       FAIR      61  59  94 W3        30.02S
CLOQUET        CLEAR     63  55  77 W8        30.01S
MCGREGOR       CLEAR     63  57  82 CALM      30.03S
$$
MNZ071>073-080-081-089-090-097-098-310700-
   Southwest Minnesota

CITY           SKY/WX    TMP DP  RH WIND       PRES   REMARKS
MONTEVIDEO     CLEAR     64  55  72 W6        30.09S
GRANITE FALLS  CLEAR     56  53  92 SW5       30.10S
CANBY          CLEAR     57  54  91 SW3       30.11S
MARSHALL       CLEAR     57  54  88 CALM      30.08F
REDWOOD FALLS  CLEAR     62  55  77 W5        30.08S
OLIVIA         CLEAR     59  54  82 CALM      30.07S
PIPESTONE      CLEAR     61  55  82 CALM      30.12S
WINDOM         CLEAR     61  55  82 CALM      30.10F
WORTHINGTON    CLEAR     55  54  94 SW5       30.12S
JACKSON        CLEAR     57  54  88 CALM      30.11S
TRACY          CLEAR     62  57  86 SW6       30.10S
SLAYTON        CLEAR     57  55  92 CALM      30.12S
$$
MNZ065>067-074>077-082>085-091>093-310700-
   South Central Minnesota

CITY           SKY/WX    TMP DP  RH WIND       PRES   REMARKS
MANKATO        CLEAR     63  54  72 W5        30.07S
NEW ULM        CLEAR     57  57 100 W3        30.07F
ST JAMES       CLEAR     61  55  82 SW5       30.09F
FAIRMONT       CLEAR     61  45  55 CALM      30.09S
GLENCOE        CLEAR     64  56  76 CALM      30.06F
FARIBAULT      CLEAR     64  55  72 W3        30.07S
OWATONNA       CLEAR     57  54  88 SW3       30.07F
WASECA         CLEAR     55  52  88 CALM      30.09S
ALBERT LEA     CLEAR     63  57  82 CALM      30.08F
$$
MNZ078>079-086>088-094>096-310700-
   Southeast Minnesota

CITY           SKY/WX    TMP DP  RH WIND       PRES   REMARKS
ROCHESTER      CLEAR     61  56  83 W8        30.08S HAZE
6HR MIN TEMP:  61; 6HR MAX TEMP:  74;

RED WING       CLEAR     61  57  88 CALM      30.03S
STANTON        CLEAR     63  57  80 SW3       30.04S
DODGE CENTER   PTCLDY    61  57  88 W5        30.07F
WINONA         CLEAR     63  59  88 W3        30.04S
AUSTIN         CLEAR     64  55  72 CALM      30.07F
PRESTON        CLEAR     61  60  96 W8        30.07F
$$
ABBREVIATIONS USED IN REMARKS
   TC - TEMPERATURES IN CELSIUS
  WCI - WIND CHILL INDEX
   HX - HEAT INDEX
  VSB - VISIBILITY
$$


USA.gov is the U.S. government's official web portal to all federal, state and local government web resources and services.